Tracking 31027 objects as of 19-Jul-2025
HD Live streaming from Space Station
objects crossing your sky now

STARLINK-30439

Track STARLINK-30439 now!
10-day predictions
STARLINK-30439 is classified as:


NORAD ID: 57867
Int'l Code: 2023-144D
Perigee: 565.7 km
Apogee: 566.8 km
Inclination: 43.0 °
Period: 95.8 minutes
Semi major axis: 6937 km
RCS: Unknown
Launch date: September 16, 2023
Source: United States (US)
Launch site: AIR FORCE EASTERN TEST RANGE (AFETR)
Your satellite tracking list
LANDSAT 5
Track 1 satellite(s)




NASA's NSSDC Master Catalog

Two Line Element Set (TLE):
1 57867U 23144D   25199.46822225  .00000928  00000-0  83787-4 0  9990
2 57867  43.0034 120.5156 0000774 268.5283  91.5471 15.02532040102384
Source of the keplerian elements: AFSPC